Temp_Advection
nan nan nan nan nan nan nan nan nan nan nan nan nan nan nan nan nan nan nan nan nan nan nan nan nan nan nan nan nan nan nan nan nan nan nan nan nan nan nan nan nan nan nan nan nan nan nan nan nan nan nan nan nan nan nan nan nan nan nan nan nan nan nan nan nan nan nan nan nan
nan 0 -0 -1 -1 -1 -1 -1 -1 -0 0 1 0 0 0 -0 -0 -0 -0 -0 0 0 1 1 1 1 0 0 0 0 0 0 0 0 0 0 0 0 0 0 0 0 0 0 0 0 0 0 -0 -0 -0 -0 -0 -0 -0 -0 0 0 -0 -0 -0 0 0 -0 -0 0 0 0 nan
nan -0 -1 -1 -1 -1 -1 -1 -1 0 1 1 0 0 0 0 0 0 0 0 1 1 1 1 1 0 0 0 0 0 0 0 0 0 0 0 0 0 0 0 0 0 0 0 -0 -0 -0 0 -0 -0 -0 -0 -0 -0 -0 -0 0 -0 -0 -0 0 0 0 -0 0 0 0 0 nan
nan -1 -1 -1 -1 -1 -1 -1 -0 0 1 0 0 0 0 0 0 0 1 1 1 1 1 0 0 0 0 0 0 0 0 0 0 0 0 0 0 0 0 0 0 -0 -0 -0 -0 -0 -0 -0 -0 -0 -0 -0 -0 -0 -0 -0 0 -0 -0 -0 0 0 0 -0 0 0 0 0 nan
nan -1 0 0 -0 -1 -1 -1 0 0 0 0 0 0 0 0 0 1 1 1 0 0 0 0 0 0 0 0 0 0 0 0 0 0 0 0 0 0 0 -0 -0 -0 -0 -0 -0 -0 -0 -0 -0 -0 -0 -0 -0 -0 -0 0 0 -0 -0 0 0 0 0 0 0 0 0 0 nan
nan 0 1 0 0 -0 -0 -0 0 0 0 0 -0 -0 0 0 0 0 0 0 0 0 0 0 0 0 0 0 0 0 -0 -0 -0 -0 0 0 0 0 -0 -0 -0 -0 -0 -0 -0 -0 -0 -0 -0 -0 -0 -0 -0 -0 -0 0 0 -0 -0 -0 -0 0 0 0 0 0 0 0 nan
nan 1 0 0 0 -0 -0 -0 0 0 0 -0 -0 -0 -0 0 0 0 0 0 0 0 0 0 -0 -0 -0 -0 -0 -0 -0 -0 -0 -0 -0 -0 -0 -0 -0 -0 -0 -0 -0 -0 -0 -0 -0 -0 -0 -1 -0 -0 -0 -0 -0 0 0 0 -0 -0 -0 0 0 0 0 0 0 0 nan
nan 1 0 0 -0 -1 -1 -0 -0 -0 -0 -0 -0 -0 -0 -0 0 0 0 0 0 -0 -0 -0 -0 -0 -0 -0 -0 -0 -0 -0 -0 -0 -0 -0 -0 -0 -0 -0 -0 -0 -0 -0 -0 -0 -0 -0 -0 -1 -0 -0 -0 -0 0 0 0 0 -0 -0 0 0 0 0 0 0 0 0 nan
nan 1 1 0 -1 -1 -0 -0 -0 -0 -0 -0 -0 0 0 0 0 0 0 0 0 0 -0 -0 -0 -0 -0 -0 -0 -0 -0 -0 -0 -0 -0 -0 -0 -0 -0 -0 -0 -0 -0 -0 -0 -0 -0 -0 -0 -0 -0 -0 -0 -0 0 0 0 -0 -0 -0 0 0 0 0 0 0 0 0 nan
nan 0 -0 -1 -1 -0 -0 0 0 -0 -0 0 0 0 0 0 0 0 0 0 0 0 0 0 0 0 -0 -0 -0 -0 -0 -0 -0 -0 -0 -0 -0 -0 -0 -0 -0 -0 -0 -0 -0 -0 -0 -0 -0 -0 -0 -0 0 0 0 0 0 -0 -0 0 0 0 0 0 0 0 0 0 nan
nan -1 -1 -1 -1 -0 0 0 0 0 0 0 0 1 1 1 0 0 0 0 0 0 0 0 0 0 0 0 0 0 0 0 -0 -0 -0 -0 -0 -0 -0 -0 -0 -0 -0 -0 -0 -0 -0 -0 -0 -0 -0 0 0 -0 -0 0 -0 -0 0 0 0 0 0 0 0 0 0 0 nan
nan -1 -1 -0 -0 0 0 0 0 0 0 1 1 1 0 0 0 0 0 0 0 0 0 0 0 0 0 0 0 0 0 0 0 0 -0 -0 -0 -0 -0 -0 -0 -0 -0 -0 -0 -0 -0 -0 -0 -0 -0 -0 -0 -0 -0 0 0 0 0 0 0 0 0 0 0 0 0 0 nan
nan -1 -0 0 0 0 0 0 0 0 1 1 1 0 0 0 0 0 0 0 0 0 0 0 0 0 0 0 0 0 0 0 0 0 -0 -0 -0 -0 -0 -0 -0 -0 -0 -0 -0 -0 -0 -0 -0 -0 -0 -0 -0 -0 0 0 0 0 0 0 0 0 0 0 -0 -0 0 0 nan
nan -0 0 0 0 0 0 0 0 1 1 1 0 0 0 0 0 0 0 0 0 0 0 0 0 0 0 0 0 0 0 0 0 -0 -0 -0 -0 -0 -0 -0 -0 -0 -0 -0 -0 -0 -0 -0 -0 -0 -0 -0 -0 0 0 0 0 0 0 0 0 0 0 0 -0 0 0 0 nan
nan 0 0 0 0 0 0 0 1 1 0 0 0 0 0 0 0 0 0 0 0 0 0 0 0 0 0 0 0 0 -0 -0 -0 -0 -0 -0 -0 -0 -0 -0 -0 -0 -0 -0 -0 -0 -0 -0 -0 0 0 0 0 0 0 0 0 0 0 0 0 0 0 0 0 0 0 0 nan
nan 0 0 0 0 0 0 1 0 0 0 0 0 0 0 0 0 -0 -0 -0 0 0 0 0 0 0 -0 -0 -0 -0 -0 -0 -0 -0 -0 -0 -0 -0 -0 -0 -0 -0 -0 -0 -0 -0 -0 -0 0 0 0 0 0 0 0 0 0 0 0 0 0 0 0 0 0 0 0 0 nan
nan -0 0 0 0 0 0 0 0 0 0 0 0 -0 -0 -0 -0 -0 -0 -0 -0 -0 -0 0 0 0 0 -0 -0 -0 -0 -0 -0 -0 -0 -0 -0 -0 -0 -0 -0 -0 -0 -0 -0 -0 -0 0 0 0 -0 -0 -0 -0 0 0 0 0 0 0 0 0 0 0 0 0 0 0 nan
nan -0 -0 -0 -0 0 -0 -0 -0 -0 -0 -0 -0 -0 -0 -0 -0 -0 -0 -0 0 0 0 0 0 0 0 0 0 0 0 0 0 0 0 0 0 0 0 0 0 0 -0 -0 0 0 0 0 0 0 -0 -0 -0 -0 0 0 0 0 0 0 0 0 0 0 0 0 0 0 nan
nan -0 -0 -0 -0 -0 -0 -0 -0 -0 -0 -0 -0 -0 -0 0 0 0 0 0 0 0 0 0 0 0 0 0 0 0 0 0 0 0 0 0 0 0 0 -0 -0 -0 0 0 0 0 0 0 0 0 -0 -0 -0 -0 -0 -0 0 0 0 0 0 0 0 0 0 -0 0 0 nan
nan 0 0 0 0 0 0 0 0 0 0 0 0 0 0 0 0 0 0 0 0 0 0 0 0 0 0 0 0 0 0 0 0 0 0 0 0 0 0 -0 0 0 0 0 0 0 0 0 -0 -0 -0 -0 0 0 -0 -0 -0 -0 -0 -0 0 0 0 -0 -0 -0 0 0 nan
nan 1 1 1 0 0 0 0 0 0 0 0 0 0 0 0 0 0 0 0 0 0 0 0 0 0 0 -0 -0 -0 -0 -0 -0 -0 -0 0 0 0 0 0 0 0 0 0 -0 -0 -0 -0 -0 -0 -0 0 0 0 0 -0 -0 -0 -0 -0 -0 0 0 -0 -0 -0 0 0 nan
nan 1 1 1 0 0 0 0 0 0 0 0 0 0 0 0 0 -0 0 0 0 -0 -0 -0 -0 -0 -0 -0 -0 -0 -0 -0 -0 -0 -0 -0 -0 -0 -0 -0 -0 0 0 -0 -0 -0 -0 -0 -0 -0 0 0 0 0 0 0 0 -0 -0 -0 -0 -0 -0 -0 0 0 0 0 nan
nan 0 0 0 0 0 0 0 0 0 0 0 0 0 0 0 -0 -0 0 0 -0 -0 -0 -0 -0 -0 -0 -0 -0 -0 -0 -0 -0 -0 -0 -0 -0 -0 -0 -0 0 0 -0 0 0 -0 -0 -0 0 0 0 0 0 0 0 0 0 0 0 0 -0 -0 -0 -0 -0 0 0 0 nan
nan -0 -0 -0 -0 -0 0 0 0 0 0 0 0 0 0 0 0 -0 -0 -0 -0 -0 -0 -0 -0 -0 0 0 0 0 0 0 0 0 0 0 0 0 0 0 0 0 0 0 0 0 0 0 0 0 0 0 0 0 0 0 0 0 0 0 0 0 0 -0 -0 -0 -0 -0 nan
nan -0 -0 -0 0 0 0 0 0 0 0 0 0 0 0 0 0 0 -0 -0 -0 -0 -0 -0 -0 -0 0 0 0 0 0 0 0 0 0 0 0 0 0 0 0 0 0 0 0 0 0 0 0 0 0 -0 0 0 0 0 0 0 0 0 0 0 -0 -0 -0 -0 -0 -0 nan
nan -0 0 0 0 0 0 0 0 0 0 0 0 0 0 0 0 0 0 0 -0 -0 -0 -0 -0 -0 -0 -0 -0 -0 -0 -0 0 0 0 0 0 0 0 0 0 0 0 0 0 0 0 0 0 -0 -0 -0 0 0 0 0 0 0 0 0 0 0 0 0 0 0 -0 -0 nan
nan 0 0 0 0 0 0 0 0 0 0 0 0 0 0 0 0 0 0 0 0 0 0 0 -0 0 0 -0 -0 -0 -0 0 0 0 0 0 0 0 0 0 0 0 0 0 -0 -0 0 0 0 -0 -0 -0 0 0 0 0 0 0 0 0 0 0 0 0 0 0 0 0 nan
nan 0 0 0 0 0 0 0 0 0 0 0 0 0 0 0 0 0 0 0 0 0 0 0 0 0 0 -0 0 0 0 0 0 0 0 -0 -0 -0 0 0 0 0 0 0 0 0 0 0 0 0 0 0 0 0 0 0 0 0 0 0 0 0 0 0 0 0 0 0 nan
nan 0 0 0 0 0 0 -0 -0 0 -0 -0 -0 -0 -0 0 0 -0 -0 -0 -0 -0 -0 0 0 -0 -0 -0 0 0 0 0 0 0 0 0 0 0 0 0 0 0 -0 -0 0 0 0 0 0 0 0 0 0 0 0 0 0 -0 -0 -0 0 0 0 0 0 0 0 0 nan
nan 0 0 0 -0 -0 -0 -0 0 0 -0 -0 -0 -0 -0 -0 -0 -0 -0 -0 -0 0 0 0 -0 0 0 0 0 0 0 0 0 0 0 0 0 0 0 0 0 -0 -0 0 0 0 0 0 0 0 0 0 0 -0 -0 -0 -0 -0 0 0 0 0 0 0 0 0 0 0 nan
nan 0 0 -0 -0 0 0 0 0 0 0 0 0 0 0 0 0 0 0 0 0 0 0 0 0 0 0 0 0 0 0 0 0 0 0 0 0 -0 0 0 0 -0 0 0 0 0 0 0 0 0 -0 -0 -0 -0 -0 -0 0 0 0 0 0 0 0 0 0 0 0 0 nan
nan 0 0 0 0 0 0 0 0 0 0 0 0 0 0 0 0 0 0 0 0 0 0 0 0 0 0 0 0 0 0 0 0 0 0 0 0 0 0 0 0 0 0 0 0 0 0 -0 -0 -0 -0 -0 -0 -0 0 0 0 0 0 0 0 0 0 0 0 -0 -0 0 nan
nan 0 0 0 0 1 0 0 0 0 0 0 0 0 0 0 0 0 0 0 0 0 0 0 0 0 0 0 0 0 0 0 0 0 0 0 0 0 0 0 0 0 0 0 0 -0 -0 -0 -0 -0 -0 0 0 0 -0 -0 -0 -0 -0 0 0 -0 -0 0 0 0 0 0 nan
nan 1 1 1 1 1 1 1 1 1 0 0 0 0 1 1 1 1 1 1 1 1 0 0 0 0 0 0 0 0 0 0 0 0 0 0 0 0 0 0 0 0 -0 -0 -0 -0 -0 -0 0 0 0 0 -0 -0 -0 -0 -0 -0 -0 -0 -0 0 0 0 0 0 -0 -0 nan
nan 1 1 1 1 1 1 1 1 1 1 1 1 1 1 1 1 1 1 1 0 0 0 0 0 0 0 0 0 0 0 0 0 0 0 0 0 0 0 -0 -0 -0 -0 -0 -0 -0 0 0 0 -0 -0 -0 -0 -0 -0 -0 -0 -0 -0 -0 -0 -0 -0 -0 -0 -0 -0 -0 nan
nan 0 0 0 0 0 0 0 1 1 1 1 1 1 1 1 1 1 1 1 1 0 0 0 0 0 0 0 0 0 0 0 0 0 0 0 -0 -0 -0 -0 -0 -0 -0 0 0 0 0 0 0 -0 -0 -0 -0 -0 -0 -0 -0 -0 -0 -0 -0 -0 -0 -0 -0 -0 -0 -0 nan
nan 0 -0 -0 -0 -0 0 0 0 0 0 0 0 0 0 0 1 1 1 1 1 1 1 1 1 0 0 0 0 0 0 -0 -0 -0 -0 -0 -0 -0 -0 0 0 0 0 0 0 0 0 -0 -0 -0 -0 -0 -0 -0 -0 -0 -0 -0 -0 -0 -0 -0 -0 -0 -0 0 0 0 nan
nan -0 0 0 -0 -0 -0 -0 -0 0 0 0 0 0 0 0 0 0 0 0 0 0 1 1 1 1 0 0 0 0 -0 -0 -0 -0 -0 -0 0 0 0 0 0 0 0 0 0 -0 -0 -0 -0 -0 -0 -0 -0 -0 -0 -0 -0 -0 -0 -0 -0 -0 0 0 0 0 0 0 nan
nan -0 0 0 0 -0 -0 0 0 0 0 0 -0 -0 -0 -0 -0 -0 -0 0 -0 -0 -0 -0 0 0 0 0 0 0 0 0 0 0 0 0 0 0 0 0 0 0 0 0 -0 -0 -0 -0 -0 -0 -0 -0 -0 -0 -0 -0 -0 -0 -0 -0 0 0 0 0 0 0 0 -0 nan
nan -0 0 0 0 0 0 0 0 0 0 0 -0 -0 -0 0 0 0 0 0 -0 -0 -0 -0 -0 -0 0 0 0 0 0 0 0 0 0 0 0 0 0 0 0 0 0 -0 -0 -0 -0 -0 -0 -0 -0 -0 -0 -0 -0 -0 -0 0 0 0 0 0 -0 -0 -0 -0 -0 -0 nan
nan nan nan nan nan nan nan nan nan nan nan nan nan nan nan nan nan nan nan nan nan nan nan nan nan nan nan nan nan nan nan nan nan nan nan nan nan nan nan nan nan nan nan nan nan nan nan nan nan nan nan nan nan nan nan nan nan nan nan nan nan nan nan nan nan nan nan nan nan
Wind_Speed
43 42 40 38 37 36 36 35 33 32 31 29 28 27 25 24 25 24 24 23 22 21 20 19 19 19 18 18 18 18 18 17 17 17 16 16 16 15 14 14 13 13 13 12 11 11 11 11 11 11 11 11 11 11 11 11 12 13 13 14 15 15 16 16 17 17 18 18 19
43 41 37 35 35 34 34 33 32 30 29 28 26 24 23 22 22 22 22 21 19 18 18 17 17 17 17 16 16 16 16 16 15 15 15 15 15 15 14 14 14 14 13 13 13 12 12 12 12 12 12 12 12 13 12 12 12 13 14 14 14 15 15 16 17 17 17 18 18
41 38 35 34 33 33 33 32 31 30 28 27 24 23 21 20 19 19 19 18 17 16 16 16 15 15 14 14 14 14 14 14 14 14 14 14 14 14 14 14 14 14 14 14 13 13 13 13 13 13 14 14 14 14 13 12 12 13 14 14 14 15 16 17 17 17 18 19 19
39 36 34 34 33 32 31 30 29 28 27 25 23 21 19 18 17 16 16 16 15 15 14 14 13 13 12 13 13 13 13 13 13 13 13 13 13 14 14 14 14 14 14 14 14 13 13 13 14 14 14 14 14 14 14 13 13 14 15 15 15 16 17 17 18 18 19 19 20
36 35 34 33 32 31 29 28 27 26 24 23 21 20 18 16 15 15 15 15 14 13 12 12 12 12 12 12 12 12 12 12 12 12 12 12 12 13 13 14 14 14 13 13 13 13 14 14 14 14 15 14 14 14 14 13 14 15 15 15 16 17 17 18 18 18 19 20 20
35 34 34 32 31 29 28 26 24 23 22 20 19 19 17 16 15 15 15 14 13 12 12 12 12 12 12 11 11 12 12 12 12 12 11 11 12 12 12 13 13 13 13 13 13 13 13 14 14 14 14 14 14 14 13 14 14 15 16 16 16 17 17 18 18 18 19 19 20
34 34 33 31 30 28 26 24 22 21 20 19 18 18 17 16 15 14 14 13 12 12 12 12 12 12 11 11 11 11 11 11 11 11 11 10 10 11 11 11 11 12 12 12 12 12 13 13 13 14 14 14 14 14 13 14 15 16 16 16 16 16 17 17 17 18 18 19 19
33 33 31 30 28 26 24 22 21 20 19 18 17 16 16 15 14 14 13 13 12 12 12 11 11 11 10 10 10 10 10 10 10 10 10 9 9 9 10 10 10 10 11 11 11 11 12 12 12 13 13 13 13 13 13 14 15 16 16 16 16 16 16 17 17 17 18 18 19
32 31 30 28 25 23 21 20 20 19 19 17 16 15 14 14 13 13 13 12 12 11 10 10 9 9 9 8 8 8 9 9 9 9 9 8 8 8 8 8 9 9 9 9 10 10 10 11 12 12 12 12 13 13 13 13 14 15 16 16 16 16 16 16 16 17 17 17 18
31 29 27 25 23 21 21 20 19 18 17 16 15 14 14 13 13 12 12 11 11 10 9 8 8 8 7 7 7 7 7 7 7 7 7 7 7 7 7 7 7 7 8 8 8 9 9 10 11 11 11 12 12 12 12 13 14 15 15 15 15 16 16 16 16 16 16 16 16
28 27 24 23 22 21 21 20 18 17 16 15 14 14 14 13 13 12 11 11 10 9 9 8 7 7 6 6 5 5 6 6 6 6 6 6 6 6 6 6 6 6 7 7 8 8 9 10 10 11 11 11 11 12 12 13 13 14 14 15 15 15 15 15 14 14 14 14 15
25 24 22 22 22 21 20 19 17 16 16 15 15 14 14 14 13 13 12 11 10 9 8 7 7 6 5 5 5 5 5 5 4 4 4 4 4 5 5 6 6 6 6 7 7 8 8 9 10 10 10 10 11 11 11 12 12 13 13 13 14 14 14 13 13 13 13 14 15
23 22 22 22 21 20 19 17 16 16 16 15 15 15 14 14 13 13 12 11 10 9 8 7 7 6 5 5 5 4 4 4 4 4 3 3 3 4 4 5 5 6 6 6 7 7 8 9 9 9 9 9 10 10 10 11 11 12 12 12 12 12 13 13 13 13 13 14 16
22 22 21 21 20 19 18 16 16 16 16 15 15 14 14 14 13 13 12 11 9 8 8 7 7 6 6 5 5 5 5 5 5 5 4 4 4 4 4 4 4 5 5 6 6 7 8 8 8 9 9 9 9 9 9 9 10 10 11 11 12 12 13 14 14 14 15 16 17
21 21 21 20 19 18 17 16 16 15 15 15 15 14 14 14 13 13 12 10 9 9 8 8 7 7 6 6 6 6 6 6 5 5 5 4 4 4 4 4 4 5 5 5 6 7 7 7 7 8 8 8 7 7 8 8 9 10 11 12 13 14 15 15 15 16 17 18 19
21 21 20 19 18 17 17 16 16 15 15 15 14 14 14 13 13 12 11 10 10 9 8 8 7 7 7 7 7 6 6 6 5 5 5 4 4 4 4 4 4 4 5 5 5 6 6 6 6 6 6 7 7 7 8 9 10 11 12 14 15 15 16 16 17 18 19 20 21
21 20 19 18 17 17 17 16 16 15 15 15 14 14 14 13 13 12 11 10 10 9 9 8 7 7 7 7 7 6 6 5 4 4 3 3 2 2 2 2 3 3 3 4 4 5 5 5 5 6 7 8 8 9 10 11 12 13 14 15 15 16 17 18 18 19 21 22 23
20 18 18 17 16 16 16 16 16 15 15 14 14 13 13 13 12 11 11 10 10 9 9 8 7 7 7 7 7 6 5 4 3 2 2 1 1 1 1 1 1 2 2 3 4 5 5 5 7 8 9 9 10 11 12 12 13 14 15 16 17 18 18 19 19 20 21 22 22
19 18 17 17 16 16 16 15 15 15 14 14 13 12 12 12 11 11 11 10 9 9 8 7 7 7 7 7 7 6 6 4 3 2 2 1 1 1 1 0 0 1 2 3 4 5 6 7 8 9 10 10 11 12 13 14 15 15 16 17 17 18 18 17 18 18 18 18 18
20 19 19 18 17 16 15 15 14 14 13 12 12 11 11 11 11 11 11 10 9 8 8 7 7 6 6 7 7 7 7 6 5 4 3 2 1 1 0 0 1 2 3 4 5 6 7 8 8 9 10 11 12 13 14 14 14 15 15 15 15 15 15 15 15 15 15 15 17
21 21 20 19 18 16 15 14 13 13 12 12 12 12 12 12 12 11 11 10 9 9 8 8 8 7 7 7 7 7 7 6 6 5 5 4 4 4 3 4 4 5 6 6 7 7 7 8 8 10 11 12 12 12 12 12 12 12 13 13 13 13 14 14 15 15 16 17 19
22 22 21 20 18 16 15 14 13 13 13 13 12 12 12 13 12 12 11 10 10 9 9 9 8 8 7 7 7 7 6 6 5 5 6 6 6 6 6 7 7 7 7 8 8 8 8 9 9 11 11 12 11 11 11 11 11 12 12 13 13 14 14 15 16 17 18 20 21
22 21 20 19 18 16 15 14 14 14 13 13 13 13 13 13 13 12 11 11 10 10 9 9 8 8 7 7 6 6 6 6 6 7 7 8 8 8 8 8 9 9 9 10 10 10 10 10 11 11 12 12 12 12 13 13 14 15 15 16 16 16 16 16 18 19 20 21 21
20 19 18 18 17 16 15 14 14 14 14 14 14 14 13 13 13 12 12 11 11 10 10 9 9 8 8 8 8 8 8 8 8 8 8 9 9 9 9 10 10 10 11 11 11 11 11 11 11 12 12 12 13 13 14 15 16 17 17 17 17 17 18 18 19 20 20 21 22
19 18 18 17 16 16 15 15 14 14 14 14 14 14 14 13 13 13 12 12 12 11 11 10 10 10 10 10 10 10 10 10 10 10 10 10 10 10 11 11 11 12 12 12 12 12 12 12 12 12 12 13 13 14 14 15 16 16 16 17 17 17 18 19 19 20 21 22 22
18 18 17 17 16 16 15 15 15 15 15 15 15 15 14 14 14 13 13 13 13 12 12 12 12 11 11 11 11 11 11 11 11 11 12 12 12 12 12 13 13 13 13 13 14 14 14 14 14 13 13 14 14 15 15 16 16 16 17 17 17 18 18 19 19 20 20 21 21
18 17 17 17 16 16 15 15 15 14 15 15 15 15 15 14 14 14 14 14 14 13 13 13 13 13 12 12 12 12 12 12 13 13 13 14 14 14 14 15 15 15 15 15 15 15 15 15 15 14 14 15 15 16 16 16 17 17 18 18 18 18 19 19 19 19 18 17 16
18 17 17 17 16 16 15 15 15 14 14 15 15 15 15 15 14 14 14 14 14 13 13 13 13 13 13 13 13 13 13 14 14 15 15 15 16 16 16 16 16 16 16 16 16 16 16 15 15 15 15 16 16 16 17 17 18 18 18 18 18 17 17 16 15 14 13 12 11
18 18 18 18 17 17 16 16 16 16 16 16 15 15 15 15 15 15 14 14 14 14 14 14 14 14 14 14 14 14 15 15 15 16 16 16 16 16 17 16 16 16 16 16 16 16 15 15 15 15 15 15 15 16 16 16 16 15 15 15 14 13 13 12 11 11 10 10 9
19 19 19 19 18 18 18 18 17 17 17 17 17 17 16 16 16 16 16 16 16 16 16 16 15 15 15 15 15 15 15 15 15 15 16 16 16 16 16 15 16 15 15 14 14 14 14 13 13 13 12 12 12 12 12 12 12 11 11 11 11 11 11 11 10 10 10 10 11
18 18 18 18 18 18 17 17 17 17 17 17 17 17 17 16 16 16 16 16 16 16 16 16 15 15 15 15 15 15 15 15 15 15 14 14 14 14 14 13 13 13 12 11 11 11 11 10 10 9 9 8 8 8 9 9 9 10 10 10 11 11 11 11 11 11 11 11 12
16 16 17 17 17 16 15 15 15 15 15 15 15 15 15 15 15 15 15 15 15 15 15 15 14 14 14 14 13 13 13 13 13 13 12 12 12 11 11 10 10 9 9 8 8 8 7 7 6 6 7 7 8 8 8 9 9 10 10 11 11 12 12 12 11 11 11 12 13
14 14 15 15 15 14 13 13 13 13 13 13 13 13 13 13 13 13 13 13 13 13 12 12 11 11 11 11 10 10 10 10 10 9 9 9 8 8 7 7 6 6 6 5 5 5 5 6 6 7 7 8 8 8 8 9 9 10 10 11 12 13 13 12 12 12 12 12 12
11 12 12 12 13 13 12 12 11 11 11 11 11 11 11 11 11 11 11 10 10 10 10 10 9 9 8 8 7 7 6 6 5 5 5 5 5 5 5 4 3 3 4 4 4 5 6 6 6 7 7 7 7 8 8 9 9 9 10 10 11 12 12 12 12 12 11 11 11
10 10 10 10 10 9 9 9 9 10 10 10 10 10 10 11 11 11 10 10 10 10 9 9 9 8 7 7 6 5 4 4 4 5 5 5 5 5 4 4 4 4 4 4 5 5 5 5 6 6 7 7 7 8 8 8 9 9 9 9 10 10 10 10 10 10 10 10 10
10 10 11 12 11 9 8 7 8 8 8 8 9 9 9 10 10 10 10 10 10 10 10 10 9 9 8 8 8 7 7 6 6 6 6 6 5 5 4 4 4 3 3 4 4 4 4 5 5 6 6 7 7 7 8 8 8 8 8 8 8 8 8 9 9 9 9 9 9
10 10 12 13 13 12 11 9 8 7 7 8 9 9 9 9 9 8 8 9 9 9 10 10 10 10 10 9 9 9 8 7 7 6 6 5 4 4 4 3 3 3 3 3 3 3 4 4 5 5 6 6 6 7 7 7 7 7 7 8 8 8 8 8 8 8 9 9 10
9 9 10 12 13 13 12 11 10 9 8 9 10 10 9 9 9 9 8 8 8 8 8 8 9 9 9 9 9 9 8 7 6 6 5 4 3 3 3 3 3 2 2 2 2 3 3 4 4 5 5 6 6 6 7 7 7 7 7 7 7 7 8 8 8 8 9 9 10
6 7 7 8 9 10 11 12 11 10 10 11 11 10 9 9 10 10 10 9 9 9 9 9 9 9 9 8 8 7 7 6 6 6 5 4 3 3 2 2 2 1 1 1 2 2 3 3 4 5 5 5 6 6 6 6 7 7 7 7 7 7 7 7 8 8 9 9 10
5 5 6 6 7 7 9 11 11 11 11 11 11 10 9 9 10 11 11 11 10 10 10 10 10 10 9 9 8 7 6 6 6 5 5 4 3 2 2 1 1 1 1 1 2 2 3 3 4 4 5 5 5 5 6 6 6 6 6 6 6 6 7 7 8 8 9 10 11
5 6 6 7 7 8 9 10 11 11 11 10 10 9 8 8 8 9 10 11 11 11 11 11 11 10 10 9 8 7 6 6 5 5 4 3 3 2 1 1 0 1 1 2 2 2 3 3 3 4 4 4 5 5 5 5 5 6 6 6 6 6 7 7 8 9 9 10 11
Wind_Direction
197 195 191 189 193 199 203 205 205 205 206 207 206 205 205 206 208 209 211 213 214 215 215 215 216 216 216 215 214 214 214 214 214 215 217 219 222 224 227 229 232 234 236 238 241 243 246 249 253 256 258 261 263 264 264 263 263 264 264 264 265 266 267 267 268 269 271 272 273
195 192 190 190 195 200 203 204 204 205 206 207 206 205 204 204 206 209 211 212 214 215 215 215 216 216 217 216 215 215 215 216 215 216 217 219 222 224 227 230 233 235 238 241 244 246 249 251 255 259 262 264 267 270 270 268 268 270 270 269 269 270 271 271 272 274 276 277 278
191 190 190 193 197 199 200 202 203 205 205 205 205 204 203 203 206 208 210 212 212 212 213 213 213 214 214 214 214 214 215 216 216 217 218 219 221 224 227 230 233 235 238 241 244 247 249 252 255 259 263 266 269 272 273 272 272 273 274 274 274 275 275 275 277 279 281 281 282
187 189 193 196 196 196 198 200 203 204 204 204 203 202 202 202 204 207 208 209 209 208 207 207 207 208 208 209 210 211 212 214 216 218 219 220 222 224 227 230 232 235 237 240 243 246 248 251 254 258 262 266 269 272 273 274 274 275 275 275 275 276 276 278 280 282 283 284 285
185 190 194 195 194 195 197 200 202 202 202 200 199 199 198 199 201 202 203 204 202 200 197 197 200 201 202 203 206 208 209 212 214 217 219 221 222 224 227 229 232 234 236 238 241 244 247 250 253 257 260 264 267 269 271 272 273 274 274 274 275 276 277 279 281 284 285 287 288
185 190 192 193 193 194 197 200 200 199 197 195 194 194 193 193 194 194 194 194 191 188 187 190 194 197 198 199 201 203 206 208 211 214 217 219 221 223 225 228 230 232 234 236 239 242 245 248 252 255 258 261 264 266 267 269 271 272 273 273 275 276 279 281 284 286 288 289 291
185 189 190 191 192 194 197 197 195 192 190 188 189 189 188 187 185 185 183 181 180 180 181 185 188 191 192 194 195 196 199 202 205 208 212 215 217 219 222 224 226 229 231 234 237 240 242 245 250 253 255 258 261 263 265 267 269 271 273 274 277 279 282 284 287 289 291 292 293
185 187 188 190 191 193 193 190 187 184 183 183 184 184 183 181 178 176 175 174 176 176 177 179 180 183 185 188 189 190 192 195 198 201 204 207 209 212 215 218 221 224 227 230 232 236 238 242 246 250 253 256 259 261 264 267 270 272 274 277 280 283 285 287 290 291 293 294 295
183 186 188 189 188 187 185 182 179 178 179 180 180 179 178 176 174 172 172 173 172 173 173 174 175 177 180 183 185 186 187 189 191 192 194 196 199 202 205 210 214 217 220 223 227 231 234 239 243 247 251 255 258 262 265 268 271 273 276 280 283 286 288 290 291 293 294 295 295
182 184 185 185 183 180 177 176 176 176 177 177 177 177 176 175 174 173 173 171 171 172 173 173 174 177 180 182 184 184 184 183 183 184 184 187 188 191 196 202 207 212 216 218 222 226 232 237 243 247 251 256 261 265 268 271 273 276 280 284 287 289 290 291 293 294 295 296 296
180 180 179 178 176 175 174 174 175 176 177 177 177 178 179 179 179 178 176 174 175 176 176 175 179 183 186 187 186 184 182 181 180 179 179 180 182 185 189 195 202 209 213 217 221 226 232 239 244 248 253 258 263 268 272 276 279 282 285 289 291 292 292 294 295 296 296 296 296
174 174 173 174 173 173 174 174 175 177 178 179 179 181 183 184 184 183 182 182 182 181 180 182 186 190 193 194 193 191 191 191 191 190 190 187 187 188 191 196 201 207 213 218 223 230 236 242 248 253 258 264 270 275 280 283 286 288 290 293 293 294 295 296 297 297 296 296 297
168 170 172 173 173 174 174 175 177 179 180 182 182 183 185 186 187 187 188 188 188 186 187 190 193 197 199 201 201 202 204 205 209 213 218 219 215 211 208 208 209 214 218 224 231 238 245 251 256 263 269 274 280 284 288 290 291 292 294 295 295 295 296 297 298 298 300 301 301
166 171 173 174 174 175 176 177 179 181 183 184 185 185 186 187 188 190 191 192 192 192 193 196 198 201 203 204 205 207 209 213 217 222 229 235 241 242 239 235 232 233 234 239 245 252 259 265 270 276 281 285 288 291 292 293 293 294 295 296 295 296 297 299 303 304 305 306 305
170 174 176 176 176 177 179 181 183 184 185 186 186 187 187 188 190 191 193 194 194 194 195 197 198 201 203 204 205 206 208 210 214 218 225 232 242 251 257 261 262 263 264 265 266 271 276 279 283 286 288 289 290 291 293 295 295 297 298 299 299 299 301 304 308 309 307 305 303
175 177 178 178 179 180 182 183 184 184 185 186 187 187 187 188 188 189 190 191 190 190 191 192 194 196 199 201 202 203 203 205 208 215 223 230 240 252 263 271 277 282 285 286 285 285 286 288 288 288 289 289 291 293 296 299 300 301 302 302 303 304 305 306 307 305 303 300 297
177 178 178 179 180 181 182 183 183 183 183 184 184 185 185 184 185 185 185 185 184 185 185 186 187 189 191 194 196 196 197 198 201 208 215 223 233 247 261 272 280 287 287 287 285 284 284 285 286 288 290 293 296 300 303 304 303 302 302 302 301 300 300 300 299 298 297 295 293
175 175 176 177 178 179 179 179 180 180 180 181 181 181 181 181 182 181 181 182 182 182 182 181 181 182 185 187 189 190 191 188 185 180 173 170 176 196 227 256 272 273 276 277 277 277 278 281 284 285 289 294 298 303 305 303 302 300 298 295 294 293 292 293 294 294 294 293 295
173 174 174 176 177 177 177 177 178 178 178 179 179 180 181 182 183 183 183 184 184 184 182 180 178 179 182 186 193 199 202 202 196 180 154 141 139 128 105 68 352 288 277 278 277 277 277 280 281 284 289 293 296 297 297 295 295 294 293 292 292 293 293 294 294 293 293 296 301
173 174 175 176 177 177 178 178 178 178 179 180 181 183 184 186 187 189 190 189 189 186 185 185 186 188 190 194 201 207 212 215 216 214 208 207 202 199 190 280 266 260 260 261 264 266 267 271 275 280 284 286 287 288 289 290 291 292 294 295 295 295 295 294 292 292 295 299 302
174 174 174 174 176 178 179 180 181 182 183 184 186 187 189 190 193 194 195 194 191 189 189 193 197 199 201 202 205 209 212 215 219 222 225 229 232 236 238 236 238 242 245 249 252 255 257 262 267 271 274 277 281 284 287 290 292 293 293 293 292 290 290 290 290 292 295 298 299
173 172 172 172 175 178 180 183 184 186 187 188 190 192 193 195 196 197 196 193 190 190 192 196 200 202 202 203 204 206 209 210 213 216 220 224 228 232 234 234 236 240 243 246 248 250 253 256 260 264 268 272 275 279 283 285 286 287 286 287 287 287 289 291 292 294 296 297 298
169 169 170 172 176 179 182 184 186 187 188 189 190 191 192 192 192 191 189 187 186 188 191 194 196 196 195 195 196 199 202 206 208 210 212 215 220 224 229 232 235 239 241 242 243 246 249 252 256 259 263 267 270 273 277 278 278 278 280 281 283 285 288 289 290 291 293 295 296
168 169 172 175 178 181 182 183 183 184 185 185 185 185 185 185 184 183 182 183 184 186 188 189 189 188 188 188 191 194 199 204 208 211 214 217 219 222 226 230 234 237 239 242 244 247 249 252 254 258 261 264 266 269 271 272 272 274 276 278 280 282 284 285 287 288 290 291 291
170 172 175 178 179 180 180 180 179 180 180 180 180 180 180 179 179 180 182 184 186 187 188 188 188 188 189 191 193 197 202 207 211 215 219 222 225 228 231 233 236 240 243 246 248 251 254 257 259 261 264 266 267 267 268 269 271 273 275 277 279 282 284 286 287 288 287 287 287
174 175 177 178 179 179 179 178 179 179 179 180 180 180 181 181 182 184 187 189 191 192 193 193 194 195 196 198 201 204 208 212 216 220 224 228 231 234 236 239 242 246 249 252 256 258 261 263 264 265 265 265 265 265 266 268 270 272 275 278 281 283 284 285 286 286 286 286 286
175 176 178 179 180 180 181 182 182 183 184 185 185 185 186 187 189 191 193 196 198 199 200 201 203 204 205 207 210 212 215 219 223 226 230 233 236 238 241 243 246 249 253 257 261 263 266 266 267 267 265 264 263 264 266 268 271 273 276 279 281 283 284 285 285 285 286 286 287
175 177 179 180 182 183 185 187 188 190 192 192 193 193 194 195 197 198 200 203 205 206 207 209 211 213 214 216 218 220 222 225 228 231 235 238 241 243 245 247 249 252 255 259 263 265 267 268 269 268 268 267 267 268 270 272 275 277 280 282 283 284 285 285 285 285 285 285 286
177 180 182 183 185 187 189 191 193 195 197 198 199 200 201 202 203 205 206 208 210 211 212 214 216 218 220 221 223 226 228 231 234 237 240 243 246 248 250 253 255 257 260 263 265 268 269 270 271 271 271 272 273 274 276 278 280 282 284 285 285 284 283 282 281 282 283 286 292
184 186 187 188 189 191 193 195 197 199 200 201 202 203 204 205 207 208 210 211 213 214 216 218 221 223 225 227 229 232 234 237 239 242 244 247 249 252 254 257 259 262 265 268 269 270 271 272 273 274 275 276 278 280 282 283 284 285 284 284 282 280 280 279 281 284 290 296 302
194 195 196 197 198 199 201 203 204 205 206 206 207 208 210 210 211 213 215 217 218 220 223 226 229 231 233 234 235 236 237 239 241 242 244 246 249 252 255 258 260 264 267 268 269 269 270 272 274 276 277 279 281 282 283 284 284 284 283 283 283 284 285 286 290 295 300 304 306
202 205 207 207 207 206 206 207 209 210 212 213 214 215 216 216 216 218 221 223 224 225 228 230 232 233 234 235 235 235 235 236 236 238 240 243 246 250 253 256 260 263 266 266 266 267 269 272 274 276 276 277 278 280 281 283 286 288 290 293 297 301 304 306 308 309 309 308 307
196 201 205 206 204 201 200 202 205 207 209 211 211 212 212 212 213 215 217 219 220 221 222 223 223 223 225 226 227 227 228 230 231 234 237 240 242 245 248 251 255 259 259 260 261 265 268 272 274 275 277 277 279 282 286 291 296 301 305 311 316 322 326 327 326 323 319 315 313
180 185 188 191 191 190 190 190 191 192 193 194 195 196 196 196 196 195 197 200 202 205 207 209 209 210 211 212 212 213 216 220 223 226 228 229 228 228 228 229 233 238 242 249 258 265 270 274 276 278 281 285 289 294 300 307 313 318 321 323 326 329 330 330 329 327 323 321 318
164 165 165 167 170 173 176 177 178 178 179 180 180 180 180 180 179 178 178 181 186 190 193 196 197 197 195 190 183 179 181 189 196 199 200 202 203 204 205 205 211 221 234 246 256 265 270 275 280 285 290 296 303 310 318 324 328 330 330 328 328 327 326 324 322 321 320 319 318
160 157 152 147 145 145 150 158 162 165 166 165 162 162 166 171 172 173 176 180 183 183 183 181 179 176 169 164 160 162 168 176 184 187 189 193 198 203 206 209 213 219 230 241 252 263 272 281 288 295 302 310 318 325 330 332 333 332 332 331 330 328 325 322 320 319 318 318 318
166 164 158 151 146 144 144 150 157 161 158 149 144 148 155 160 162 168 175 180 177 174 171 169 165 160 157 157 160 167 173 177 182 186 188 193 199 206 210 208 206 212 223 240 257 271 283 293 300 307 315 322 328 333 334 334 333 333 332 331 330 328 326 324 322 322 320 319 319
174 174 170 165 161 158 158 161 167 169 163 152 150 154 159 159 157 159 164 168 167 163 161 161 158 157 160 166 173 178 181 184 186 186 186 187 191 197 202 202 204 213 231 257 277 291 300 307 314 320 326 331 334 335 334 333 333 333 332 332 330 328 325 324 325 325 324 323 323
179 179 179 181 182 180 178 176 177 175 170 163 163 167 171 169 164 161 161 163 163 162 161 161 161 164 171 180 187 189 189 186 186 185 185 183 185 189 190 192 200 224 261 287 300 307 312 319 324 327 330 332 332 333 332 332 332 334 334 335 334 332 329 328 329 330 331 331 330
168 167 169 176 180 181 180 177 176 174 172 172 173 174 173 170 168 168 169 170 170 170 169 168 168 170 174 183 186 188 188 185 183 183 184 186 189 190 188 182 200 263 295 308 311 317 320 325 328 329 329 329 329 330 331 332 335 338 339 341 341 341 340 339 339 340 339 337 335
143 144 147 149 151 153 158 162 165 167 170 172 172 167 162 163 166 170 174 177 179 180 179 177 176 177 180 183 183 182 182 180 178 180 183 187 190 190 185 184 254 301 310 315 320 323 325 325 325 325 325 326 327 331 337 344 348 351 354 355 354 353 352 351 349 347 344 341 338
Height
1433 1434 1436 1438 1440 1442 1445 1446 1448 1449 1450 1451 1452 1452 1453 1454 1455 1456 1456 1457 1458 1459 1460 1461 1462 1463 1464 1465 1466 1467 1468 1468 1469 1470 1471 1471 1472 1473 1474 1475 1476 1477 1478 1479 1480 1481 1481 1482 1483 1483 1484 1485 1485 1486 1487 1487 1488 1489 1489 1489 1490 1490 1491 1491 1491 1491 1492 1492 1492
1431 1433 1436 1438 1439 1441 1444 1446 1447 1448 1450 1451 1451 1452 1453 1454 1455 1456 1456 1457 1458 1459 1460 1461 1462 1463 1464 1465 1466 1466 1467 1468 1468 1469 1470 1471 1472 1473 1474 1475 1476 1476 1477 1478 1479 1480 1481 1481 1482 1482 1483 1483 1484 1485 1485 1486 1487 1487 1488 1488 1489 1489 1490 1490 1490 1491 1491 1491 1491
1430 1433 1435 1437 1439 1441 1443 1445 1446 1448 1449 1450 1451 1452 1453 1454 1455 1456 1456 1457 1458 1459 1460 1461 1461 1462 1463 1464 1465 1466 1466 1467 1468 1469 1469 1470 1471 1472 1473 1474 1475 1476 1476 1477 1478 1479 1480 1480 1481 1481 1482 1482 1483 1484 1484 1485 1486 1486 1486 1487 1488 1488 1488 1488 1489 1489 1490 1490 1490
1430 1433 1435 1436 1438 1440 1442 1444 1446 1447 1448 1449 1450 1451 1453 1454 1455 1456 1456 1457 1458 1459 1460 1461 1461 1462 1463 1463 1464 1465 1466 1466 1467 1468 1469 1470 1471 1471 1472 1473 1474 1475 1476 1477 1477 1478 1479 1479 1480 1480 1481 1481 1482 1483 1483 1484 1485 1485 1486 1486 1486 1487 1487 1487 1488 1488 1488 1488 1489
1430 1432 1434 1436 1437 1440 1442 1444 1445 1446 1448 1449 1450 1451 1453 1454 1455 1456 1456 1457 1458 1459 1460 1460 1461 1461 1462 1463 1464 1464 1465 1466 1466 1467 1468 1469 1470 1471 1472 1473 1473 1474 1475 1476 1476 1477 1478 1479 1479 1480 1480 1481 1481 1482 1482 1483 1484 1484 1485 1485 1486 1486 1486 1486 1487 1487 1487 1487 1487
1430 1432 1434 1435 1437 1440 1442 1443 1445 1446 1447 1449 1450 1451 1452 1453 1454 1455 1456 1457 1458 1459 1459 1460 1461 1461 1462 1462 1463 1464 1464 1465 1466 1466 1467 1468 1469 1470 1471 1472 1473 1474 1474 1475 1476 1476 1477 1478 1478 1479 1479 1480 1480 1481 1482 1482 1483 1483 1483 1484 1484 1485 1485 1485 1486 1486 1486 1486 1486
1429 1431 1433 1435 1437 1439 1441 1443 1445 1446 1447 1448 1450 1451 1452 1453 1454 1455 1456 1457 1458 1458 1459 1460 1460 1461 1461 1462 1462 1463 1464 1464 1465 1466 1467 1468 1469 1470 1470 1471 1472 1473 1474 1474 1475 1476 1476 1477 1477 1478 1478 1479 1479 1480 1481 1481 1482 1482 1482 1483 1483 1484 1484 1484 1485 1485 1485 1485 1485
1429 1431 1433 1435 1437 1439 1441 1443 1444 1446 1447 1448 1449 1451 1452 1453 1454 1455 1456 1457 1457 1458 1459 1459 1460 1460 1461 1461 1462 1462 1463 1464 1465 1466 1466 1467 1468 1469 1470 1471 1471 1472 1473 1473 1474 1475 1475 1476 1476 1477 1477 1478 1479 1479 1480 1481 1481 1481 1481 1482 1482 1483 1483 1483 1484 1484 1484 1484 1484
1428 1431 1433 1435 1437 1439 1441 1443 1444 1445 1446 1448 1450 1451 1452 1453 1454 1455 1456 1456 1457 1458 1458 1459 1459 1460 1461 1461 1462 1462 1463 1464 1465 1465 1466 1467 1468 1468 1469 1470 1471 1471 1472 1473 1473 1474 1475 1475 1476 1476 1476 1477 1478 1478 1479 1480 1480 1480 1481 1481 1481 1482 1482 1482 1482 1483 1483 1483 1482
1428 1430 1433 1435 1438 1440 1441 1442 1444 1445 1447 1448 1450 1451 1452 1453 1454 1455 1455 1456 1456 1457 1458 1458 1459 1460 1460 1461 1461 1462 1463 1464 1464 1465 1466 1466 1467 1468 1469 1469 1470 1471 1471 1472 1472 1473 1474 1474 1475 1475 1476 1476 1477 1478 1478 1479 1479 1479 1480 1480 1481 1481 1481 1481 1481 1481 1481 1481 1481
1428 1431 1433 1436 1438 1439 1441 1442 1444 1446 1447 1448 1450 1451 1451 1452 1453 1454 1455 1456 1456 1457 1457 1458 1459 1459 1460 1461 1461 1462 1463 1463 1464 1465 1466 1466 1467 1467 1468 1469 1469 1470 1471 1471 1472 1472 1473 1473 1474 1474 1475 1476 1476 1477 1477 1478 1478 1478 1479 1479 1479 1480 1480 1480 1480 1481 1481 1480 1480
1428 1431 1434 1436 1438 1439 1441 1442 1444 1446 1447 1448 1449 1450 1451 1452 1453 1454 1455 1455 1456 1456 1457 1458 1458 1459 1460 1460 1461 1461 1462 1463 1464 1464 1465 1466 1466 1467 1468 1468 1469 1470 1470 1471 1471 1471 1472 1472 1473 1474 1474 1475 1476 1476 1476 1477 1477 1477 1478 1478 1478 1478 1479 1479 1479 1479 1479 1479 1479
1430 1432 1435 1436 1438 1440 1441 1443 1444 1446 1447 1448 1449 1450 1451 1451 1452 1453 1454 1455 1456 1456 1457 1457 1458 1459 1459 1460 1461 1461 1462 1462 1463 1464 1465 1465 1466 1466 1467 1468 1468 1469 1469 1470 1471 1471 1471 1472 1472 1473 1474 1474 1475 1475 1476 1476 1476 1476 1477 1477 1477 1477 1478 1478 1478 1478 1478 1477 1477
1431 1433 1435 1437 1438 1440 1441 1443 1444 1445 1446 1447 1448 1449 1450 1451 1452 1453 1454 1455 1455 1456 1456 1457 1458 1458 1459 1460 1460 1461 1461 1462 1463 1463 1464 1465 1465 1466 1466 1467 1468 1468 1469 1469 1470 1470 1471 1471 1472 1472 1473 1473 1474 1474 1475 1475 1475 1476 1476 1476 1476 1476 1476 1476 1476 1476 1476 1476 1476
1431 1434 1436 1437 1439 1440 1441 1443 1444 1445 1446 1447 1448 1449 1450 1451 1452 1453 1454 1454 1455 1456 1456 1457 1457 1458 1459 1459 1460 1461 1461 1462 1462 1463 1464 1464 1465 1465 1466 1466 1467 1467 1468 1469 1469 1470 1470 1471 1471 1471 1472 1473 1473 1474 1474 1474 1475 1475 1475 1475 1475 1475 1475 1475 1475 1475 1475 1475 1474
1433 1435 1436 1438 1439 1440 1441 1443 1444 1445 1446 1447 1448 1449 1450 1451 1452 1453 1453 1454 1455 1455 1456 1456 1457 1458 1458 1459 1460 1461 1461 1462 1462 1463 1463 1464 1464 1465 1465 1466 1466 1467 1467 1468 1468 1469 1469 1470 1470 1471 1471 1472 1472 1473 1473 1473 1473 1474 1474 1474 1474 1473 1473 1473 1474 1474 1473 1473 1473
1434 1435 1436 1438 1439 1440 1441 1442 1444 1445 1446 1447 1448 1449 1450 1451 1452 1452 1453 1454 1455 1455 1456 1456 1457 1458 1458 1459 1460 1460 1461 1461 1462 1462 1463 1463 1464 1464 1465 1465 1466 1466 1466 1467 1467 1468 1468 1469 1470 1470 1471 1471 1471 1472 1472 1472 1472 1472 1473 1473 1473 1472 1472 1472 1472 1472 1472 1472 1472
1435 1436 1437 1438 1439 1440 1441 1443 1444 1445 1446 1447 1448 1449 1450 1451 1451 1452 1453 1454 1454 1455 1456 1456 1457 1457 1458 1459 1459 1460 1461 1461 1461 1462 1462 1463 1463 1464 1464 1465 1465 1466 1466 1466 1467 1467 1468 1468 1469 1469 1470 1470 1470 1471 1471 1471 1471 1472 1472 1472 1472 1471 1471 1471 1471 1471 1471 1471 1471
1435 1436 1437 1438 1440 1441 1442 1443 1445 1446 1446 1447 1448 1449 1450 1451 1451 1452 1453 1454 1454 1455 1456 1456 1457 1457 1458 1459 1459 1460 1460 1461 1461 1462 1462 1463 1463 1464 1464 1464 1465 1465 1466 1466 1466 1467 1467 1468 1468 1469 1469 1469 1470 1470 1470 1471 1471 1471 1471 1471 1471 1471 1471 1471 1471 1470 1470 1470 1470
1436 1436 1438 1439 1440 1441 1442 1444 1445 1446 1446 1447 1448 1449 1450 1450 1451 1452 1453 1453 1454 1455 1456 1456 1457 1457 1458 1458 1459 1460 1460 1461 1461 1461 1462 1462 1463 1463 1464 1464 1465 1465 1465 1466 1466 1466 1467 1467 1468 1468 1469 1469 1469 1469 1470 1470 1470 1470 1470 1470 1469 1469 1469 1469 1469 1469 1469 1469 1469
1436 1437 1438 1439 1441 1441 1443 1444 1445 1446 1446 1447 1448 1449 1449 1450 1451 1452 1453 1453 1454 1455 1455 1456 1456 1457 1458 1458 1459 1459 1460 1460 1461 1461 1462 1462 1463 1463 1463 1463 1464 1464 1464 1465 1465 1466 1466 1467 1467 1468 1468 1468 1468 1468 1469 1469 1469 1469 1469 1468 1468 1468 1468 1468 1468 1468 1468 1468 1468
1436 1437 1438 1439 1441 1442 1443 1444 1445 1445 1446 1447 1448 1449 1450 1450 1451 1452 1452 1453 1454 1455 1455 1456 1456 1457 1457 1458 1458 1459 1459 1460 1461 1461 1461 1462 1462 1462 1462 1462 1463 1463 1464 1464 1465 1465 1466 1466 1467 1467 1467 1468 1468 1468 1468 1468 1468 1467 1467 1467 1467 1467 1467 1467 1467 1467 1467 1467 1467
1436 1437 1438 1440 1441 1442 1443 1444 1444 1445 1446 1447 1448 1449 1449 1450 1451 1451 1452 1453 1454 1454 1455 1455 1456 1456 1457 1457 1458 1459 1459 1460 1460 1460 1461 1461 1461 1461 1461 1462 1462 1463 1463 1464 1464 1465 1465 1466 1466 1466 1467 1467 1467 1467 1467 1467 1467 1467 1467 1467 1467 1467 1467 1467 1467 1467 1467 1467 1466
1436 1437 1439 1440 1441 1442 1443 1444 1444 1445 1446 1447 1448 1448 1449 1450 1451 1451 1452 1452 1453 1454 1454 1455 1455 1456 1456 1457 1458 1458 1459 1459 1459 1459 1460 1460 1460 1461 1461 1461 1462 1462 1462 1463 1463 1464 1465 1465 1465 1466 1466 1466 1466 1466 1466 1466 1466 1466 1466 1466 1466 1466 1466 1466 1466 1466 1466 1466 1465
1436 1437 1439 1440 1441 1442 1443 1443 1444 1445 1446 1447 1447 1448 1449 1450 1450 1451 1451 1452 1453 1453 1454 1454 1455 1455 1456 1456 1457 1457 1458 1458 1458 1459 1459 1459 1460 1460 1460 1461 1461 1461 1462 1462 1463 1463 1464 1464 1464 1465 1465 1465 1465 1465 1465 1465 1465 1465 1465 1465 1465 1465 1465 1465 1465 1465 1464 1464 1464
1436 1438 1439 1440 1441 1442 1442 1443 1444 1445 1446 1446 1447 1448 1449 1449 1450 1451 1451 1452 1452 1453 1453 1454 1454 1455 1455 1456 1456 1456 1457 1457 1458 1458 1458 1459 1459 1459 1460 1460 1461 1461 1461 1461 1462 1462 1463 1463 1463 1464 1464 1464 1464 1464 1464 1464 1464 1464 1464 1464 1464 1464 1464 1464 1463 1463 1463 1462 1462
1437 1438 1439 1440 1441 1442 1442 1443 1444 1445 1446 1446 1447 1448 1448 1449 1450 1450 1451 1451 1451 1452 1452 1453 1453 1454 1455 1455 1456 1456 1456 1457 1457 1457 1458 1458 1459 1459 1459 1460 1460 1460 1461 1461 1461 1461 1462 1462 1462 1463 1463 1463 1463 1463 1463 1463 1463 1463 1463 1463 1463 1463 1463 1462 1462 1461 1461 1461 1460
1437 1438 1439 1440 1441 1442 1443 1443 1444 1445 1446 1446 1447 1447 1448 1448 1449 1450 1450 1451 1451 1451 1452 1453 1453 1454 1454 1455 1455 1456 1456 1456 1456 1457 1457 1457 1458 1458 1459 1459 1459 1460 1460 1460 1460 1461 1461 1461 1461 1462 1462 1462 1462 1462 1462 1462 1462 1462 1462 1462 1462 1461 1461 1461 1461 1460 1460 1459 1459
1438 1439 1439 1440 1441 1442 1442 1443 1444 1444 1445 1446 1446 1447 1447 1448 1449 1449 1450 1450 1451 1451 1452 1452 1452 1453 1453 1454 1455 1455 1455 1456 1456 1456 1456 1457 1457 1457 1458 1458 1458 1459 1459 1459 1460 1460 1460 1460 1461 1461 1461 1461 1461 1461 1461 1461 1461 1461 1461 1461 1461 1460 1460 1460 1459 1459 1458 1458 1457
1437 1438 1439 1440 1441 1441 1441 1442 1443 1443 1444 1445 1445 1446 1447 1447 1448 1448 1449 1449 1450 1450 1451 1451 1451 1452 1453 1453 1454 1454 1454 1455 1455 1455 1456 1456 1456 1457 1457 1457 1458 1458 1458 1459 1459 1459 1459 1459 1460 1460 1460 1460 1460 1460 1460 1460 1460 1460 1460 1460 1459 1459 1459 1458 1458 1457 1457 1456 1456
1437 1438 1439 1439 1440 1440 1441 1441 1442 1442 1443 1444 1444 1445 1446 1446 1447 1447 1448 1448 1449 1449 1450 1450 1451 1451 1452 1452 1453 1453 1454 1454 1454 1455 1455 1455 1456 1456 1456 1457 1457 1457 1457 1458 1458 1458 1458 1458 1458 1458 1459 1459 1459 1459 1459 1459 1459 1459 1459 1458 1458 1458 1457 1457 1456 1456 1456 1456 1455
1437 1438 1438 1439 1440 1440 1441 1441 1441 1442 1443 1443 1444 1445 1445 1446 1446 1447 1447 1448 1448 1449 1449 1450 1451 1451 1451 1452 1452 1453 1453 1453 1454 1454 1454 1455 1455 1455 1456 1456 1456 1456 1457 1457 1457 1457 1457 1457 1458 1458 1458 1458 1458 1458 1458 1458 1458 1458 1458 1457 1457 1456 1456 1456 1456 1455 1455 1455 1454
1437 1438 1438 1439 1440 1440 1441 1441 1441 1442 1442 1443 1444 1444 1445 1446 1446 1446 1447 1448 1448 1449 1449 1450 1450 1451 1451 1451 1452 1452 1452 1453 1453 1453 1454 1454 1455 1455 1455 1455 1456 1456 1456 1456 1456 1456 1457 1457 1457 1457 1457 1457 1457 1457 1457 1457 1457 1457 1456 1456 1456 1456 1455 1455 1454 1454 1454 1454 1453
1437 1438 1438 1438 1439 1439 1440 1441 1441 1442 1442 1443 1443 1444 1445 1445 1446 1446 1447 1447 1448 1448 1449 1449 1450 1450 1451 1451 1451 1452 1452 1452 1453 1453 1453 1454 1454 1454 1454 1455 1455 1455 1456 1456 1456 1456 1456 1456 1457 1457 1457 1457 1457 1457 1457 1456 1456 1456 1455 1455 1455 1455 1454 1454 1454 1453 1453 1453 1452
1437 1437 1437 1438 1438 1439 1439 1440 1441 1441 1442 1443 1443 1444 1444 1445 1446 1446 1447 1447 1448 1448 1448 1449 1449 1450 1450 1451 1451 1451 1452 1452 1452 1453 1453 1453 1453 1454 1454 1455 1455 1455 1456 1456 1456 1456 1456 1456 1456 1456 1456 1456 1456 1456 1456 1455 1455 1455 1455 1455 1454 1454 1454 1453 1453 1453 1452 1452 1451
1437 1437 1437 1438 1439 1439 1439 1440 1441 1441 1442 1442 1443 1444 1444 1445 1446 1446 1446 1447 1447 1448 1448 1449 1449 1450 1450 1450 1451 1451 1451 1452 1452 1452 1452 1453 1453 1454 1454 1455 1455 1455 1455 1455 1456 1456 1456 1456 1456 1456 1456 1455 1455 1455 1455 1455 1454 1454 1454 1454 1454 1453 1453 1453 1452 1452 1451 1451 1451
1437 1437 1438 1438 1439 1440 1440 1441 1441 1441 1442 1443 1443 1444 1445 1445 1446 1446 1446 1447 1447 1447 1448 1448 1449 1449 1450 1450 1450 1451 1451 1451 1452 1452 1452 1453 1453 1454 1454 1455 1455 1455 1455 1455 1455 1455 1455 1455 1455 1455 1455 1455 1454 1454 1454 1454 1454 1454 1454 1453 1453 1453 1452 1452 1451 1451 1451 1450 1450
1436 1437 1438 1438 1439 1440 1441 1441 1441 1442 1442 1443 1444 1444 1445 1445 1446 1446 1446 1446 1447 1447 1447 1448 1448 1449 1449 1450 1450 1450 1451 1451 1452 1452 1453 1453 1453 1454 1454 1454 1455 1455 1455 1455 1455 1455 1455 1454 1454 1454 1454 1454 1454 1454 1454 1454 1453 1453 1453 1453 1452 1452 1452 1451 1451 1451 1450 1450 1449
1436 1437 1438 1439 1439 1440 1441 1441 1441 1442 1443 1443 1444 1444 1444 1445 1445 1446 1446 1446 1447 1447 1447 1448 1448 1449 1449 1450 1450 1450 1451 1451 1452 1452 1452 1453 1453 1453 1454 1454 1454 1454 1454 1454 1454 1454 1454 1454 1454 1454 1453 1453 1453 1453 1453 1453 1453 1453 1453 1452 1452 1451 1451 1451 1450 1450 1449 1449 1448
1437 1437 1438 1439 1439 1440 1440 1441 1441 1442 1443 1443 1443 1444 1444 1445 1445 1446 1446 1446 1446 1447 1447 1448 1448 1449 1449 1449 1450 1450 1451 1451 1451 1452 1452 1453 1453 1453 1453 1453 1454 1454 1454 1454 1454 1453 1453 1453 1453 1453 1453 1453 1453 1453 1453 1453 1453 1453 1452 1452 1451 1451 1451 1450 1450 1449 1449 1448 1448
1437 1438 1438 1439 1440 1440 1441 1441 1441 1442 1443 1443 1443 1444 1444 1445 1445 1445 1446 1446 1446 1447 1447 1448 1448 1449 1449 1450 1450 1451 1451 1451 1452 1452 1452 1453 1453 1453 1453 1453 1453 1453 1453 1453 1453 1453 1453 1453 1453 1453 1453 1453 1453 1453 1453 1453 1452 1452 1452 1451 1451 1451 1450 1450 1449 1449 1448 1448 1447